Regional Weather Roundup
Issued by NWS

Home | Current Version | Previous Version | Graphics & Text | Print | Product List | Glossary On
Versions: 1 2 3 4 5 6 7 8 9 10 11 12 13 14 15 16 17 18 19 20 21 22 23 24 25 26 27 28 29 30 31 32 33 34 35 36 37 38 39 40 41 42 43 44 45 46 47 48 49 50
000
ASUS43 KLOT 040000
RWRIL

ILLINOIS REGIONAL WEATHER ROUNDUP
NATIONAL WEATHER SERVICE CHICAGO/ROMEOVILLE IL
700 PM CDT FRI JUL 03 2015

NOTE: "FAIR" INDICATES FEW OR NO CLOUDS BELOW 12,000 FEET WITH NO
SIGNIFICANT WEATHER AND/OR OBSTRUCTIONS TO VISIBILITY.

* THESE STATIONS ARE NOT UNDER NWS QUALITY CONTROL. THEY ALSO MAY NOT
  REPORT WEATHER SUCH AS PRECIPITATION OR FOG.

ILZ001-002-007-009-015-016-024-040100-
NORTHWEST ILLINOIS

CITY           SKY/WX    TMP DP  RH WIND       PRES   REMARKS
MOLINE         PTSUNNY   75  60  59 E5        29.92S
6HR MIN TEMP:  75; 6HR MAX TEMP:  79;

STERLING*      PTSUNNY   75  59  57 NW6       29.93S
$$

ILZ003-004-008-010-011-017-018-040100-
NORTH CENTRAL ILLINOIS

CITY           SKY/WX    TMP DP  RH WIND       PRES   REMARKS
ROCKFORD       MOSUNNY   75  58  55 NW7       29.94S
6HR MIN TEMP:  75; 6HR MAX TEMP:  79;

$$

ILZ005-006-012>014-019>023-040100-
NORTHEAST ILLINOIS

CITY           SKY/WX    TMP DP  RH WIND       PRES   REMARKS
CHICAGO-OHARE  MOSUNNY   73  53  49 E7        29.91S
6HR MIN TEMP:  73; 6HR MAX TEMP:  77;

CHICAGO-MIDWAY PTSUNNY   73  54  51 E8        29.92S
6HR MIN TEMP:  73; 6HR MAX TEMP:  77;

AURORA         SUNNY     75  57  53 NW3       29.92S
6HR MIN TEMP:  74; 6HR MAX TEMP:  78;

WAUKEGAN       SUNNY     67  55  65 E5        29.92F
6HR MIN TEMP:  67; 6HR MAX TEMP:  72;

DUPAGE AIRPORT PTSUNNY   76  56  49 N5        29.91S
6HR MIN TEMP:  74; 6HR MAX TEMP:  78;

WHEELING       SUNNY     71  52  50 E6        29.94S
6HR MIN TEMP:  71; 6HR MAX TEMP:  76;

NORTHERLY ISL    N/A     65  57  75 NE5         N/A
$$

LMZ740>746-040100-
SOUTHERN LAKE MICHIGAN

STATION/POSITION SKY/WX   TEMP    WIND        PRES    VSBY  WAVE
                          AIR SEA DIR/SP/G                  HT/PER
                          (F)     (DEG/KT/KT) (MB)    (MI)  (FT/S)
HARRISON CRIB              63      70/  8/  9   N/A
BURNHAM HARBOR             66      40/  4/  6   N/A
CALUMET HARBOR             66      30/  5/  6   N/A
BURNS HARBOR               67      50/  8/  9 1013.9F
MICHIGAN CITY              63      20/  5/  5   N/A
MICHIGAN CITY 6N           65 65   40/  6/  8   N/A           1/ 2
ST. JOSEPH                 64 63                N/A           1/ 2
$$

ILZ025>027-034>036-040-047-049-050-058-095>099-040100-
WEST-CENTRAL ILLINOIS

CITY           SKY/WX    TMP DP  RH WIND       PRES   REMARKS
QUINCY         SUNNY     78  59  51 N5        29.91F
$$

ILZ028>032-037-038-041>044-048-051>054-059>061-040100-
CENTRAL ILLINOIS

CITY           SKY/WX    TMP DP  RH WIND       PRES   REMARKS
DECATUR        SUNNY     75  64  68 NE7       29.90S
PEORIA         SUNNY     78  59  51 NE3       29.91S
6HR MIN TEMP:  78; 6HR MAX TEMP:  82;

SPRINGFIELD    SUNNY     79  64  60 N6        29.90S HX  81
6HR MIN TEMP:  73; 6HR MAX TEMP:  82;

TAYLORVILLE    NOT AVBL
$$

ILZ033-039-045-046-055>057-062-063-040100-
EAST-CENTRAL ILLINOIS

CITY           SKY/WX    TMP DP  RH WIND       PRES   REMARKS
CHAMPAIGN      SUNNY     74  62  66 NE7       29.91R
MATTOON        SUNNY     75  64  68 N10       29.88S
$$

ILZ079-100>102-040100-
SOUTHWEST ILLINOIS

CITY           SKY/WX    TMP DP  RH WIND       PRES   REMARKS
BELLEVILLE     SUNNY     78  69  73 NE5       29.87R HX  81
CAHOKIA*       SUNNY     80  66  62 N10       29.87S HX  82
$$

ILZ064>066-069>071-074>076-080>082-084>086-088>090-092>094-040100-
SOUTH-CENTRAL ILLINOIS

CITY           SKY/WX    TMP DP  RH WIND       PRES   REMARKS
CARBONDALE     SUNNY     81  65  58 N5        29.86S HX  83
6HR MIN TEMP:  80; 6HR MAX TEMP:  83;

MT. VERNON     CLOUDY    73  64  73 CALM      29.88R
$$

ILZ067-068-072-073-078-083-087-091-040100-
SOUTHEAST ILLINOIS

CITY           SKY/WX    TMP DP  RH WIND       PRES   REMARKS
LAWRENCEVILLE  MOSUNNY   76  69  79 E7        29.87R
$$

ABBREVIATIONS USED IN REMARKS
   TC - TEMPERATURE IN CELSIUS
  WCI - WIND CHILL INDEX
   HX - HEAT INDEX
  VSB - VISIBILITY
$$



USA.gov is the U.S. government's official web portal to all federal, state and local government web resources and services.